STARLINK-31912, 59656

Orbit data source: Space-Track

STARLINK-31912, 59656 is a payload satellite owned by SpaceX/Seattle (US) in LEO that was launched on Mon, 06 May 2024 UTC via an FALCON 9 launch vehicle from the Air Force Eastern Test Range (AFETR). Payload-class satellites include a variety of spacecraft equipped with specific instruments for various scientific and technological missions. These include communications satellites like Starlink; space stations such as the ISS; scientific satellites like the Hubble; Earth observation satellites from companies like Planet Labs, Umbra, and HawkEye 360; GPS; miniature CubeSats for education and research; and military/defense satellites.

Loading next visibility...
Identifier
59656, 2024-084C
Orbit
LEO
Country
Flag of USUS
Related business
Manufacturer
SpaceX/Seattle
Mission
Operational Commercial Communications
Bus & Motor
STARLINK V2M, Unknown motor
Mass
730 kg wet, ~700 kg dry
Launch date (UTC)
2024-05-06 (2 years ago)
Launch vehicle
FALCON 9
Launch site
Air Force Eastern Test Range (AFETR)
Object type
Payload
Rocket body
Debris
Shape & HBR
Box + 2 Pan, 17.7 m
Radar Cross Section
33.884 m², Large (>1 m²)

Expand to show TLE details & history
Last TLE update: 23 hours ago

TLE from 23 hours ago
0 STARLINK-31912
1 59656U 24084C   25347.92130085  .00005522  00000-0  20988-3 0  9992
2 59656  42.9985 166.3758 0001477 271.6235  88.4447 15.27602512 91254
Epoch: 2025-12-13T22:06Z
TLE epoch observation values (Epoch: 2025-12-13T22:06:40.393Z)
Latitude
-0.00005°
Longitude
111.86581°
Altitude
482.73 km
Speed
7.626 km/s
True Right ascension
11h 05m 30s
True Declination
0° 00' 00"
Sunlit
Object was in daylight at epoch
Visualization orbit readout
Latitude
Unknown
Longitude
Unknown
Altitude
Unknown
Speed
Unknown
Apparent Right ascension
Unknown
Apparent Declination
Unknown
Sunlit
N/A
Visualization observer readout
Local Sidereal Time
19:45:15
Azimuth
Unknown
Elevation
Unknown
Doppler factor
Unknown
Orbital elements
Apogee altitude
485.941 km
Perigee altitude
483.913 km
Semi-major axis
6,863.064 km
Eccentricity
0.00015
Inclination
42.9985°
RAAN
166.3758°
Arg. of periapsis
271.6235°
True anomaly
88.46162°
Mean anomaly
88.4447°
Eccentric anomaly
88.45316°
Mean motion
3.81739 °/min
Orbital period
94.31 mins
BSTAR
0.00020988
Loading maneuver chart data...
Computing Atmospheric mass density...
Loading historical data...
Loading historical data...
Loading historical data...
Loading historical data...
Loading historical data...
Loading historical data...
Loading historical data...

Documentation

Showing up to 5 results
|